www.pogodaiklimat.ru
ПОГОДА в Потсдаме
Время
(UTC), дата
10 30.11
11 30.11
12 30.11
13 30.11
14 30.11
15 30.11
16 30.11
17 30.11
18 30.11
19 30.11
20 30.11
21 30.11
22 30.11
23 30.11
00 1.12
01 1.12
02 1.12
03 1.12
04 1.12
05 1.12
06 1.12
07 1.12
08 1.12
09 1.12
10 1.12
11 1.12
12 1.12
13 1.12
14 1.12
15 1.12
16 1.12
17 1.12
18 1.12
19 1.12
20 1.12
21 1.12
22 1.12
23 1.12
00 2.12
01 2.12
02 2.12
03 2.12
04 2.12
05 2.12
06 2.12
07 2.12
08 2.12
09 2.12
10 2.12
11 2.12
12 2.12
13 2.12
14 2.12
15 2.12
16 2.12
17 2.12
18 2.12
19 2.12
20 2.12
21 2.12
22 2.12
23 2.12
00 3.12
01 3.12
02 3.12
03 3.12
04 3.12
05 3.12
06 3.12
07 3.12
08 3.12
09 3.12
10 3.12
11 3.12
12 3.12
13 3.12
14 3.12
15 3.12
16 3.12
17 3.12
18 3.12
19 3.12
20 3.12
21 3.12
22 3.12
23 3.12
00 4.12
01 4.12
02 4.12
03 4.12
04 4.12
05 4.12
06 4.12
07 4.12
08 4.12
09 4.12
10 4.12
11 4.12
12 4.12
13 4.12
14 4.12
15 4.12
16 4.12
17 4.12
18 4.12
19 4.12
20 4.12
21 4.12
22 4.12
23 4.12
00 5.12
01 5.12
02 5.12
03 5.12
04 5.12
05 5.12
06 5.12
07 5.12
08 5.12
09 5.12
10 5.12
11 5.12
12 5.12
13 5.12
14 5.12
15 5.12
16 5.12
17 5.12
18 5.12
19 5.12
20 5.12
21 5.12
22 5.12
23 5.12
00 6.12
01 6.12
02 6.12
03 6.12
04 6.12
05 6.12
06 6.12
07 6.12
08 6.12
09 6.12
10 6.12
11 6.12
12 6.12
13 6.12
14 6.12
15 6.12
16 6.12
17 6.12
18 6.12
19 6.12
20 6.12
21 6.12
22 6.12
23 6.12
00 7.12
01 7.12
02 7.12
03 7.12
04 7.12
05 7.12
06 7.12
07 7.12
08 7.12
Ветер
(напр.,м/с)
Видим. Явления Облачность Т
(С)
Тd
(С)
f
(%)
Тe
(С)
Тes
(С)
Комфортность P
(гПа)
Po
(гПа)
Тmin
(С)
Tmax
(С)
R
(мм)
R24
(мм)
S
(см)
З 4 28 км 5/1 180 м
[St Ci]
+1.4 +0.5 94 -4 -3 прохладно 1021.4 1008.9
З 4 35 км 3/3 270 м
[Cu med, cong]
+2.7 +0.6 86 -2 -1 по сезону 1021.3 1008.8
З 4 40 км 6/6 300 м
[Cu Sc]
+3.6 +1.0 83 -1 -1 по сезону 1021.5 1009.1
З 4 40 км 5/5 330 м
[Cu med, cong]
+3.4 +1.4 87 -1 -1 по сезону 1021.7 1009.3
З 4 40 км 3/3 360 м
[Cu med, cong Ac lent]
+3.4 +1.4 87 -1 -1 по сезону 1021.9 1009.5
З 3 40 км 1/1 450 м
[Sc diur, vesp]
+2.4 +1.0 90 -2 -2 по сезону 1022.5 1010.0
З 4 30 км 3/3 600 м
[Sc]
+1.1 +0.4 95 -4 -4 прохладно 1022.8 1010.2
ЮЗ 5 28 км 4/4 500 м
[Sc]
+0.9 +0.5 97 -5 -5 холодно 1023.0 1010.4
З 4 35 км 9/9 300 м
[Sc]
+1.2 +0.8 97 -4 -4 прохладно 1023.1 1010.5 -1.9 +3.8
З 5 35 км 8/8 540 м
[Sc]
+1.6 +1.2 97 -4 -4 прохладно 1023.1 1010.6
З 4 35 км 9/9 1500 м
[Sc]
+1.8 +1.2 96 -3 -3 прохладно 1023.5 1011.0
З 4 30 км 6/6 1500 м
[Sc]
+1.4 +1.1 98 -4 -4 прохладно 1023.4 1010.8
З 4 26 км 6/6 1500 м
[Sc]
+0.9 +0.7 99 -5 -5 холодно 1023.5 1010.9
З 4 20 км 4/4 1500 м
[Sc]
+0.8 +0.6 99 -5 -5 холодно 1023.6 1011.0
З 4 10 км ясно +0.2 +0.1 99 -5 -5 холодно 1023.6 1011.0
ЮЗ 3 3000 м дымка 4/4 30 м
[St]
-0.4 -0.4 100 -5 -5 холодно 1023.7 1011.1
ЮЗ 3-4
{4}
800 м туман ясно -0.4 -0.5 99 -5 -5 холодно 1023.8 1011.2
ЮЗ 3 500 м переохл. туман ?/? -0.2 -0.3 99 -5 -5 холодно 1023.6 1011.0
ЮЗ 3 2500 м в посл. час туман 10/10 150 м
[St]
+0.4 +0.3 99 -4 -4 прохладно 1023.4 1010.8
ЮЗ 3 2500 м дымка 10/10 180 м
[St]
+0.6 +0.4 99 -4 -4 прохладно 1023.2 1010.6
ЮЗ 2 3000 м дымка {туман} 9/9 200 м
[Sc]
+0.7 +0.6 99 -3 -3 прохладно 1022.9 1010.3 -0.5 +1.8
СЗ 2 2200 м дымка 10/9 150 м
[Sc]
+0.7 +0.7 100 -3 -3 прохладно 1022.8 1010.2
ЮЗ 2 2200 м дымка 10/9 120 м
[St]
+0.8 +0.7 99 -3 -3 прохладно 1023.2 1010.6
ЮЗ 2 500 м туман ?/? +1.1 +0.9 99 -3 -3 прохладно 1023.4 1010.8
ЮЗ 2-3
{4}
500 м туман ?/? +1.4 +1.2 99 -2 -2 по сезону 1023.4 1010.8
Ю 2 1600 м в посл. час туман 10/10 120 м
[St]
+2.1 +1.9 99 -1 -1 по сезону 1022.7 1010.2
Ю 1 3000 м дымка {туман} 10/10 90 м
[St]
+2.4 +1.9 96 +1 +1 по сезону 1022.4 1009.9
З 3 3000 м дымка 10/9 120 м
[St]
+3.0 +2.1 94 -1 -1 по сезону 1022.1 1009.6
З 1 3000 м дымка 10/10 150 м
[St]
+2.8 +1.8 93 +1 +1 по сезону 1021.9 1009.4
З 1 3000 м дымка 10/10 210 м
[Sc]
+2.4 +1.6 94 +1 +1 по сезону 1021.7 1009.2
З 1 3000 м дымка 10/10 120 м
[St]
+2.3 +1.6 95 0 0 по сезону 1021.8 1009.3
СЗ 1 3000 м дымка 10/9 120 м
[St]
+1.7 +1.2 96 -0 -0 по сезону 1021.4 1008.9
З 1 3000 м дымка 10/9 50 м
[St]
+1.5 +1.1 97 -1 -1 по сезону 1021.2 1008.7 +0.5 +3.0
З 1 2800 м дымка 10/9 60 м
[St]
+1.4 +1.2 99 -1 -1 по сезону 1020.9 1008.4
З 1 1600 м дымка 10/10 30 м
[St]
+1.6 +1.3 98 -0 -0 по сезону 1020.7 1008.2
З 2 1200 м дымка 10/10 30 м
[St]
+1.7 +1.5 99 -2 -2 по сезону 1020.6 1008.1
З 2 1600 м дымка 10/10 30 м
[St]
+1.6 +1.3 98 -2 -2 по сезону 1020.4 1007.9
СЗ 3-4
{5}
600 м туман ?/? +1.4 +1.2 99 -3 -3 прохладно 1020.3 1007.8
З 2 800 м туман ?/? +1.4 +1.2 99 -2 -2 по сезону 1019.9 1007.4
З 3 1100 м в посл. час туман 10/10 30 м
[St]
+1.6 +1.4 99 -3 -3 прохладно 1019.7 1007.2
З 3 1400 м в посл. час туман 10/10 30 м
[St]
+1.7 +1.5 99 -3 -3 прохладно 1019.7 1007.2
З 3 2800 м дымка {туман} 10/9 60 м
[St]
+1.6 +1.3 98 -3 -3 прохладно 1019.4 1006.9
З 3 3000 м дымка 10/9 90 м
[St]
+1.5 +1.2 98 -3 -3 прохладно 1019.1 1006.6
З 4 3000 м дымка 10/9 60 м
[St]
+1.6 +1.3 98 -4 -4 прохладно 1019.0 1006.5
З 4 3500 м дымка {туман} 10/9 50 м
[St]
+1.8 +1.3 96 -3 -3 прохладно 1019.1 1006.6 +1.4 +1.8
З 6 3500 м дымка 10/9 90 м
[St]
+1.7 +1.1 96 -5 -5 холодно 1019.3 1006.8
З 5 4500 м дымка 10/9 120 м
[St]
+1.9 +1.3 96 -4 -4 прохладно 1019.4 1006.9
З 5 6000 м дождь 10/9 100 м
[St]
+2.1 +1.6 96 -4 -4 прохладно 1019.9 1007.4 0.1
З 6 7000 м в посл. час дождь 10/9 150 м
[St]
+2.7 +1.9 94 -3 -3 прохладно 1020.3 1007.8
З 7 9000 м 10/9 240 м
[St]
+3.4 +2.0 91 -3 -3 прохладно 1020.1 1007.7
З 6 15 км {снег, дождь} 9/9 270 м
[Sc]
+3.9 +2.4 90 -2 -2 по сезону 1020.3 1007.9 0.0
З 5 20 км 9/9 330 м
[Sc]
+4.2 +2.3 87 -1 -1 по сезону 1020.3 1007.9
З 5 20 км 9/9 300 м
[Cu Sc]
+4.1 +2.1 87 -1 -1 по сезону 1019.8 1007.4
З 6 12 км слаб. дождь 9/9 400 м
[Sc]
+4.1 +2.3 88 -1 -1 по сезону 1019.7 1007.3 0.0
З 6 10 км слаб. дождь 10/9 300 м
[Frnb]
+4.1 +2.8 91 -1 -1 по сезону 1019.9 1007.5
З 6 20 км в посл. час дождь 10/9 330 м
[Sc]
+4.1 +2.2 87 -1 -1 по сезону 1020.7 1008.3
З 7 25 км {дождь} 10/9 300 м
[Sc]
+3.9 +2.4 90 -2 -2 по сезону 1021.1 1008.7 +1.7 +4.2 0.1
З 7 35 км 9/9 1380 м
[Sc]
+3.6 +2.0 89 -2 -2 по сезону 1021.6 1009.2
З 6 45 км 5/5 1380 м
[Sc]
+3.1 +2.0 92 -3 -3 прохладно 1022.2 1009.7
З 5 45 км 3/3 1500 м
[Sc]
+2.6 +1.1 90 -3 -3 прохладно 1023.0 1010.5
З 5 45 км 3/3 1500 м
[Sc]
+1.4 +0.6 94 -5 -5 холодно 1023.8 1011.2
З 5 45 км 1/1 930 м
[Sc]
+1.0 +0.2 94 -5 -5 холодно 1024.6 1012.0
З 4 45 км ясно +0.6 +0.1 96 -5 -5 холодно 1025.0 1012.4
З 3-4
{5}
45 км ясно -0.1 -0.4 98 -5 -5 холодно 1025.4 1012.7
З 3 45 км 4/4 90 м
[St]
-0.2 -0.4 99 -5 -5 холодно 1025.8 1013.1
З 3 35 км ясно -0.9 -1.1 99 -6 -6 холодно 1026.0 1013.3
З 3-5
{5}
35 км ясно -0.6 -0.8 99 -6 -6 холодно 1026.2 1013.5
ЮЗ 3 35 км 1/1 800 м
[Sc]
-0.7 -0.9 99 -6 -6 холодно 1026.6 1013.9
ЮЗ 3 35 км 3/3 1000 м
[Sc]
-0.6 -0.8 99 -6 -6 холодно 1026.6 1013.9 -1.1 +4.0
ЮЗ 4 30 км 6/3 1300 м
[Sc Ci]
-0.8 -1.0 99 -7 -7 холодно 1026.9 1014.2
ЮЗ 4 20 км 8/1 1350 м
[Sc Ci fib]
-0.4 -0.6 99 -6 -6 холодно 1027.4 1014.7
ЮЗ 4 18 км 8/4 1000 м
[Sc Ci fib]
+0.5 +0.3 99 -5 -5 холодно 1027.4 1014.8
ЮЗ 3 20 км 5/4 60 м
[Sc Ci fib]
+1.7 +1.5 99 -3 -2 прохладно 1027.3 1014.7
ЮЗ 3 25 км 5/5 150 м
[Cu Sc Ci fib]
+3.2 +2.0 92 -1 -0 по сезону 1026.9 1014.4
ЮЗ 4 20 км 9/9 240 м
[Cu Sc]
+4.1 +2.5 89 -0 -0 по сезону 1026.7 1014.2
ЮЗ 3 20 км 10/9 180 м
[Sc]
+3.8 +2.6 92 -0 -0 по сезону 1026.5 1014.0
ЮЗ 3 15 км 10/9 210 м
[St]
+4.1 +2.8 91 0 0 по сезону 1026.3 1013.8
ЮЗ 3 1800 м дождь {морось} 10/9 60 м
[Frnb]
+4.0 +3.7 98 0 0 по сезону 1026.0 1013.5 0.2
ЮЗ 4 3000 м слаб. морось {дождь} 10/9 60 м
[St]
+4.3 +4.1 99 -0 -0 по сезону 1025.8 1013.4
З 5 3000 м слаб. морось 10/9 30 м
[Frnb]
+4.7 +4.6 99 -0 -0 по сезону 1025.6 1013.2
ЮЗ 5 5000 м в посл. час морось {дождь} 10/9 <50 м
[St]
+4.9 +4.8 99 -0 -0 по сезону 1025.4 1013.0 -1.0 +4.9 0.4
ЮЗ 5 7000 м дымка 10/9 120 м
[Sc]
+5.0 +4.7 98 0 0 по сезону 1025.3 1012.9
ЮЗ 5 7000 м дымка 10/9 90 м
[Sc]
+4.8 +4.6 99 -0 -0 по сезону 1025.0 1012.6
ЮЗ 5 18 км 9/9 120 м
[Sc]
+4.7 +4.4 98 -0 -0 по сезону 1025.2 1012.8
ЮЗ 5 20 км 9/9 840 м
[Sc]
+4.5 +4.1 97 -1 -1 по сезону 1024.9 1012.5
ЮЗ 6 20 км 9/9 750 м
[Sc]
+4.5 +3.8 95 -1 -1 по сезону 1024.7 1012.3
З 6 28 км 9/9 600 м
[Sc]
+5.0 +3.6 91 -0 -0 по сезону 1024.5 1012.1
ЮЗ 5 28 км 9/9 1440 м
[Sc]
+4.5 +3.5 93 -1 -1 по сезону 1024.5 1012.1
ЮЗ 5 26 км 9/9 1350 м
[Sc]
+4.3 +3.1 92 -1 -1 по сезону 1024.3 1011.9
ЮЗ 5 21 км 6/6 1260 м
[Sc]
+3.1 +2.4 95 -2 -2 по сезону 1023.9 1011.4
ЮЗ 5 21 км 3/1 1300 м
[Sc Ci fib]
+2.6 +2.1 97 -3 -3 прохладно 1023.7 1011.2
ЮЗ 5 21 км 6/6 1050 м
[Sc]
+2.8 +2.1 95 -3 -3 прохладно 1023.7 1011.2
ЮЗ 5 18 км 8/8 1000 м
[Sc]
+3.2 +2.0 92 -2 -2 по сезону 1023.6 1011.1 +2.4 +5.0
ЮЗ 5 15 км 9/9 1020 м
[Sc]
+3.3 +2.2 92 -2 -2 по сезону 1023.7 1011.2
ЮЗ 5 18 км 9/8 1080 м
[Sc Ci fib]
+4.0 +2.1 87 -1 -1 по сезону 1023.9 1011.5
ЮЗ 4 18 км 9/9 600 м
[Sc]
+4.4 +2.1 85 0 0 по сезону 1024.2 1011.8
ЮЗ 4 18 км 5/4 1230 м
[Sc Ci fib]
+4.2 +1.8 84 -0 0 по сезону 1024.5 1012.1
ЮЗ 4 18 км 5/3 1230 м
[Sc Ci]
+5.2 +1.9 79 +1 +2 по сезону 1024.1 1011.7
ЮЗ 4 28 км 10/10 1200 м
[]
+6.0 +2.5 78 +2 +2 по сезону 1023.6 1011.3
ЮЗ 3 28 км 5/3 600 м
[Cu Sc Ac lent Ci fib]
+6.0 +2.4 78 +3 +3 по сезону 1023.2 1010.9
ЮЗ 3 30 км 3/1 1300 м
[Sc Ci fib]
+5.9 +2.4 78 +3 +3 по сезону 1023.0 1010.7
ЮЗ 3 26 км 3/0
[Ac lent Ci fib]
+4.3 +2.3 87 +1 +1 по сезону 1023.0 1010.6
Ю 4 22 км 3/0
[Ac lent Ci fib]
+3.0 +1.8 92 -2 -2 по сезону 1023.1 1010.6
Ю 5 22 км 1/0
[Ci fib]
+2.4 +1.4 93 -3 -3 прохладно 1023.1 1010.6
Ю 5 22 км ясно +2.3 +1.3 93 -3 -3 прохладно 1023.0 1010.5 +2.1 +6.2
Ю 5 22 км 1/0
[Ci fib]
+1.8 +0.8 93 -4 -4 прохладно 1023.1 1010.6
Ю 5 22 км 1/0
[Ci fib]
+1.6 +0.6 93 -4 -4 прохладно 1022.9 1010.4
Ю 5 30 км ясно +1.2 +0.2 93 -5 -5 холодно 1022.9 1010.3
Ю 5-7
{7}
30 км ясно +0.9 -0.4 91 -5 -5 холодно 1022.6 1010.0
Ю 4-6
{7}
30 км ясно +0.2 -0.7 94 -5 -5 холодно 1022.3 1009.7
Ю 4 30 км 1/0
[Ci fib]
-0.2 -1.1 94 -6 -6 холодно 1021.7 1009.1
Ю 5-7
{9}
30 км ясно +0.4 -1.3 88 -6 -6 холодно 1021.8 1009.2
Ю 4-6
{7}
30 км ясно -0.7 -1.6 94 -6 -6 холодно 1021.2 1008.6
Ю 3 25 км ясно -1.9 -2.5 96 -7 -7 холодно 1021.0 1008.3
Ю 3 25 км 4/0
[Ci]
-2.1 -2.6 96 -7 -7 холодно 1020.7 1008.0
Ю 4 20 км 5/0
[Ci fib]
-2.1 -2.7 96 -8 -8 очень
холодно
1020.4 1007.7
Ю 4 20 км 4/0
[Ci fib]
-1.7 -2.6 94 -8 -8 очень
холодно
1020.5 1007.8 -2.4 +2.3
Ю 4 15 км 3/0
[Ci fib]
-2.0 -2.6 96 -8 -8 очень
холодно
1020.8 1008.1
Ю 4 15 км 1/0
[Ci fib]
-1.7 -2.5 94 -8 -8 очень
холодно
1020.6 1007.9
Ю 4 15 км 6/0
[Ci]
-0.3 -2.5 85 -6 -5 холодно 1020.6 1008.0
ЮЗ 3 17 км 3/0
[Ci fib]
+0.5 -1.7 85 -4 -3 прохладно 1020.6 1008.0
ЮЗ 3 18 км 1/0
[Ci fib]
+2.0 -1.2 79 -2 -1 по сезону 1020.4 1007.9
ЮЗ 3 20 км 1/0
[Ci fib]
+3.4 -0.9 73 -0 +1 по сезону 1019.6 1007.2
ЮЗ 3 27 км 1/0
[Ci fib]
+3.7 -0.3 75 0 +1 по сезону 1019.4 1007.0
Ю 3 30 км 1/0
[Ci fib]
+3.4 -0.2 77 -0 -0 по сезону 1018.8 1006.4
ЮЗ 4 29 км 1/0
[Ci fib]
+2.2 -0.5 82 -3 -3 прохладно 1019.2 1006.7
ЮЗ 5 26 км 3/0
[Ci]
+1.6 -0.7 85 -4 -4 прохладно 1018.9 1006.4
Ю 5 27 км 1/0
[Ci fib]
+1.2 -1.0 85 -5 -5 холодно 1018.5 1006.0
ЮЗ 4 23 км 1/0
[Ci fib]
+0.6 -1.4 86 -5 -5 холодно 1018.3 1005.8 -2.2 +3.9
ЮЗ 5 20 км 4/0
[Ci fib]
-0.2 -1.7 90 -6 -6 холодно 1018.0 1005.4
ЮЗ 6 20 км 4/0
[Ci fib]
-0.5 -1.9 90 -7 -7 холодно 1017.8 1005.2
Ю 5 20 км 1/0
[Ci fib]
-0.6 -2.1 90 -7 -7 холодно 1017.2 1004.6
ЮЗ 6 20 км 1/0
[Ci fib]
-1.1 -2.2 92 -8 -8 очень
холодно
1016.8 1004.2
Ю 6 20 км 3/0
[Ci]
-0.8 -2.0 92 -8 -8 очень
холодно
1016.2 1003.6
ЮЗ 4 20 км 5/0
[Ci]
-1.2 -2.3 92 -7 -7 холодно 1015.8 1003.2
ЮЗ 5 20 км 5/0
[Ci]
-0.9 -2.5 89 -7 -7 холодно 1015.1 1002.5
ЮЗ 5 20 км 5/0
[Ci]
-1.0 -2.9 87 -7 -7 холодно 1014.5 1001.9
Ю 6 20 км 4/0
[Ci fib]
-0.5 -3.0 83 -7 -7 холодно 1013.5 1001.0
ЮЗ 5 20 км 6/0
[Ci]
-0.5 -3.1 83 -7 -7 холодно 1012.8 1000.3
ЮЗ 6 20 км 5/0
[Ci fib]
-0.7 -3.3 83 -7 -7 холодно 1012.1 999.6
ЮЗ 5 20 км 6/0
[Ac und Ci fib]
-0.4 -3.4 80 -6 -6 холодно 1012.1 999.6 -1.5 +0.5
ЮЗ 5 20 км 9/9 1200 м
[Sc]
+0.7 -3.2 75 -5 -5 холодно 1012.0 999.5
ЮЗ 5 23 км 9/9 1500 м
[Sc]
+1.4 -2.7 74 -4 -4 прохладно 1012.0 999.6
ЮЗ 5 25 км в посл. час дождь 10/10 600 м
[Sc]
+2.0 -2.1 74 -3 -3 прохладно 1012.1 999.7 0.0
ЮЗ 5 25 км в посл. час дождь 10/9 630 м
[Sc]
+2.5 -1.4 75 -3 -3 прохладно 1011.9 999.5
ЮЗ 5 25 км слаб. дождь 10/9 540 м
[Sc]
+3.1 -1.4 72 -2 -2 по сезону 1011.3 999.0
ЮЗ 5 20 км дождь 10/10 570 м
[Sc]
+2.3 +0.2 86 -3 -3 прохладно 1010.8 998.4 0.2
ЮЗ 5 12 км слаб. дождь 10/3 630 м
[Cu hum As op]
+2.0 +1.0 93 -4 -4 прохладно 1010.0 997.6
ЮЗ 5 9000 м слаб. дождь 10/0 1200 м
[As op]
+2.2 +1.1 92 -3 -3 прохладно 1009.3 997.0
ЮЗ 6 9000 м слаб. дождь 10/9 1300 м
[Sc]
+2.3 +1.4 94 -4 -4 прохладно 1008.8 996.5 2
ЮЗ 7 9000 м слаб. дождь 10/9 1200 м
[Sc]
+2.3 +1.3 93 -4 -4 прохладно 1008.3 996.0
ЮЗ 6 20 км слаб. дождь 10/10 930 м
[Cu Sc]
+2.4 +1.8 96 -4 -4 прохладно 1007.8 995.5
ЮЗ 7 18 км слаб. дождь 10/10 1000 м
[Sc]
+3.0 +2.0 93 -3 -3 прохладно 1007.3 995.0 -0.4 +3.1 3
ЮЗ 7 12 км слаб. дождь 10/9 750 м
[Sc]
+3.2 +2.5 95 -3 -3 прохладно 1006.9 994.6
ЮЗ 7 12 км слаб. дождь 10/9 800 м
[Sc]
+3.7 +2.7 93 -2 -2 по сезону 1006.4 994.2
ЮЗ 7 18 км в посл. час дождь 10/9 800 м
[Sc]
+4.1 +3.3 95 -2 -2 по сезону 1005.6 993.4 1
ЮЗ 7 20 км в посл. час дождь 10/9 420 м
[Sc]
+4.8 +3.6 92 -1 -1 по сезону 1004.9 992.7
ЮЗ 6 25 км в посл. час дождь 10/9 300 м
[Sc]
+4.9 +4.3 96 -1 -1 по сезону 1004.5 992.3
ЮЗ 8 25 км {дождь} 10/9 300 м
[Sc]
+5.5 +4.2 91 -0 -0 по сезону 1003.8 991.7 2
ЮЗ 7 25 км в посл. час дождь 10/9 330 м
[Sc]
+5.4 +4.5 94 -0 -0 по сезону 1003.2 991.1
ЮЗ 7 15 км слаб. дождь 10/9 330 м
[Sc]
+5.5 +4.9 96 -0 -0 по сезону 1003.0 990.9
ЮЗ 6 45 км в посл. час дождь 10/9 330 м
[Sc]
+5.6 +4.9 95 +1 +1 по сезону 1002.6 990.5 0.4
ЮЗ 7 45 км 10/9 360 м
[Cu Sc]
+5.7 +4.5 92 0 0 по сезону 1002.4 990.3
ЮЗ 7 45 км 10/9 660 м
[Cu Sc]
+6.2 +4.6 89 +1 +1 по сезону 1002.4 990.3
ЮЗ 7 15 км слаб. дождь 10/9 300 м
[Sc]
+6.3 +5.4 94 +1 +1 по сезону 1002.7 990.6 +2.9 +6.4 3
ЮЗ 8 30 км в посл. час дождь 10/9 360 м
[Sc]
+6.8 +6.0 95 +1 +1 по сезону 1003.6 991.5
З 7 35 км в посл. час дождь 9/9 360 м
[Sc]
+7.4 +6.6 95 +3 +3 по сезону 1004.6 992.6
Местоположение метеостанции Потсдам (Германия): широта 52.38 долгота 13.07 высота над уровнем моря 100 м.
В архиве по умолчанию представлена погода в Потсдаме за последнюю неделю. Архивные данные за месяц целиком и за предыдущие месяцы, начиная с января 2011 года, Вы можете получить, выбрав интересующий диапазон дат из раскрывающегося списка и нажав кнопку "Найти!".
*Определитесь, кто Вы:
Внимание! Время в таблицах - всемирное. Для получения местного времени необходимо прибавить поправку, которая равна 1 ч.
Смотрите также архив погоды в соседних городах и на ближайших метеорологических станциях:
Партнеры нашего сайта:      
Пояснения к столбцам:
  • Ветер - указаны скорость ветра в м/с - средняя за 10 мин, порывы в срок и между сроками (в фигурных скобках) и направление, откуда дует ветер: С - северный,
  • СВ - северо-восточный, В - восточный, ЮВ - юго-восточный, Ю - южный, ЮЗ - юго-западный, З - западный, СЗ - северо-западный.
  • Видимость - горизонтальная дальность видимости в метрах или километрах. При видимости от 1 до 10 км при отсутствии осадков обычно наблюдается дымка, при ухудшении видимости до 1 км и менее - туман. В сухую погоду видимость может ухудшаться дымом, пылью или мглою.
  • Явления - указаны атмосферные явления, наблюдавшиеся в срок или в последний час перед сроком; фигурными скобками обозначены явления, наблюдавшиеся между сроками (за 1-3 часа до срока); квадратными скобками обозначены град или гололедные отложения с указанием их диаметра в мм.
  • Облачность - указаны через наклонную черту общая и нижняя облачность в баллах и высота нижней границы облаков в метрах; квадратными скобками обозначены формы облаков: Ci - перистые, Cs - перисто-слоистые, Cc - перисто-кучевые, Ac - высококучевые, As - высокослоистые, Sc - слоисто-кучевые, Ns - слоисто-дождевые, Cu - кучевые, Cb - кучево-дождевые. Подробнее классификацию облаков см. в Атласе облаков (PDF).
  • T - Температура воздуха - температура, измеренная на высоте 2 м над землей.
  • Td - Температура точки росы - температура, при понижении до которой содержащийся в воздухе водяной пар достигнет насыщения.
  • f - Относительная влажность воздуха - влажноcть воздуха, измеренная на высоте 2 м над землей.
  • Te - Эффективная температура - температура, которую ощущает одетый по сезону человек в тени. Характеристика душности погоды. При расчете учитывается влияние влажности воздуха и скорости ветра на теплоощущения человека.
  • Tes - Эффективная температура на солнце - температура, которую ощущает человек, с поправкой на солнечный нагрев. Характеристика знойности погоды. Зависит от высоты солнца над горизонтом, облачности и скорости ветра. Ночью, в пасмурную погоду, а также при ветре 12 м/с и более поправка равна нулю.
  • P - Атмосферное давление - приведенное к уровню моря атмосферное давление.
  • Po - Атмосферное давление - измеренное на уровне метеостанции атмосферное давление.
  • Tmin - Минимальная температура - минимум температуры воздуха на высоте 2 м над землей.
  • Tmax - Максимальная температура - максимум температуры воздуха на высоте 2 м над землей.
  • R - Количество осадков - Количество выпавших осадков за период времени, мм. При наведении курсора мыши на число - период времени, за который выпало указанное количество осадков.
  • R24 - Количество осадков - Количество выпавших осадков за 24 часа, мм.
  • S - Снежный покров - Высота снежного покрова, см. При наведении курсора мыши на число - состояние снежного покрова и степень покрытия местности в баллах.